{"data":{"norad_id":64148,"epoch":"2026-05-25T02:30:11.271168Z","epoch_age_seconds":59847,"freshness":"FRESH","line1":"1 64148U 25112C   26145.10429712  .00005519  00000+0  38613-3 0  9991","line2":"2 64148  97.4463 196.4250 0002437 108.5519 251.5973 15.05660779 54805","mean_motion":15.05660779,"eccentricity":0.0002437,"inclination_deg":97.4463,"raan_deg":196.425,"arg_perigee_deg":108.5519,"mean_anomaly_deg":251.5973,"bstar":0.00038613,"rev_number":5480,"period_min":95.639072232219,"perigee_km":547.7898309249,"apogee_km":551.16635052012,"semimajor_km":6927.6150907225,"source":"CELESTRAK","updated_at":"2026-05-25T13:38:20.301877Z"}}